Погода в Сторожевске

Россия / Республика Коми     61°56′24″N   52°18′56″E
темп.,
°C
ветер,
м/с
пор.,
м/с
влажн.,
%
обл.,
%
осадки,
мм/ч
давл.,
гПа
погр.,
м
18 апреля, вс
вс1800:000с5107017 0.9 1025989
03:00−3с49775 0.9 1029754
06:00−3ссв487491 0.0 1031774
09:000св455696 0.0 10341402
12:00+3ссв354290 0.0 10341906
15:00+3ссв443964 0.0 10351915
18:00+1ссв36535 0.0 1036202
21:00−3св26727 0.0 1037118
19 апреля, пн
пн1900:00−4всв11715 0.0 103831
03:00−4всв11715 0.0 103919
06:00−2всв01575 0.0 1040258
09:00+2с12415 0.0 10391064
12:00+4ссз22352 0.0 10381328
15:00+5сз22350 0.0 10371377
18:00+2сз11525 0.0 103610
21:00−1зюз11585 0.0 103710
20 апреля, вт
вт2000:00−2зюз236413 0.0 103742
03:00−2з256738 0.0 103699
06:00+1з275658 0.0 1036258
09:00+6зсз353923 0.0 1035866
12:00+8зсз343497 0.0 10341239
15:00+9зсз34345 0.0 10331272
18:00+6зсз11505 0.0 103210
21:00+3зюз11595 0.0 103310
21 апреля, ср
ср2100:00+1юз11642 0.0 103310
03:000ююз11660 0.0 103410
06:00+3ю12580 0.0 1034101
09:00+8ююв23425 0.0 1033642
12:00+12ююв34321 0.0 10311267
15:00+13ююв46310 0.0 10291457
18:00+10ююв38445 0.0 1028289
21:00+6юв3136397 0.0 1028341
22 апреля, чт
чт2200:00+5ююв3116482 0.0 1027357
03:00+5ююв41365100 0.0 1026477
06:00+6ююв51357100 0.0 1025778
09:00+6ю51263100 0.0 1025767
12:00+8ю51062100 0.0 1025903
15:00+8ю51069100 0.0 1026891
18:00+7ю5117694 0.0 1026945
21:00+6ю51282100 0.0 1026851